| time (UTC) | temp C | wind direction | speed KPH | gust KPH | rain 1hr cm | rain 24hr cm | rain mn cm | humidity % | barometer mb |
| 20260505193005 | 16 | 201 | 1.6 | 4.8 | 0.00 | 2.84 | 1.27 | 83 | 1010.6 |
| 20260505192004 | 16 | 187 | 0.0 | 4.8 | 0.00 | 2.92 | 1.27 | 82 | 1010.6 |
| 20260505190005 | 16 | 224 | 1.6 | 4.8 | 0.00 | 3.05 | 1.27 | 81 | 1010.6 |
| 20260505185005 | 16 | 236 | 0.0 | 4.8 | 0.00 | 3.07 | 1.27 | 80 | 1010.5 |
| 20260505184005 | 16 | 219 | 1.6 | 8.0 | 0.00 | 3.07 | 1.27 | 79 | 1010.3 |
| 20260505183005 | 16 | 210 | 4.8 | 9.7 | 0.00 | 3.07 | 1.27 | 79 | 1010.3 |
| 20260505181005 | 16 | 211 | 3.2 | 12.9 | 0.00 | 3.07 | 1.27 | 77 | 1010.3 |
| 20260505180005 | 17 | 217 | 8.0 | 16.1 | 0.00 | 3.07 | 1.27 | 76 | 1010.2 |
| 20260505175005 | 17 | 207 | 8.0 | 19.3 | 0.00 | 3.10 | 1.27 | 75 | 1010.1 |
| 20260505174005 | 17 | 211 | 9.7 | 19.3 | 0.00 | 3.10 | 1.27 | 74 | 1010.1 |
| 20260505173005 | 17 | 210 | 9.7 | 19.3 | 0.00 | 3.15 | 1.27 | 74 | 1010.0 |
| 20260505172006 | 17 | 209 | 9.7 | 22.5 | 0.00 | 3.15 | 1.27 | 72 | 1009.9 |
| 20260505171005 | 17 | 204 | 11.3 | 19.3 | 0.00 | 3.17 | 1.27 | 70 | 1009.9 |
| 20260505170005 | 18 | 207 | 9.7 | 24.1 | 0.00 | 3.17 | 1.27 | 70 | 1009.9 |
| 20260505165005 | 18 | 199 | 11.3 | 29.0 | 0.00 | 3.17 | 1.27 | 69 | 1010.0 |
| 20260505164008 | 18 | 187 | 16.1 | 32.2 | 0.00 | 3.17 | 1.27 | 69 | 1010.0 |
| 20260505162005 | 18 | 191 | 11.3 | 27.4 | 0.00 | 3.20 | 1.27 | 66 | 1010.1 |
| 20260505161005 | 18 | 210 | 11.3 | 37.0 | 0.00 | 3.20 | 1.27 | 66 | 1010.1 |
| 20260505151005 | 20 | 195 | 14.5 | 27.4 | 0.00 | 3.23 | 1.27 | 59 | 1009.8 |
| 20260505125005 | 21 | 198 | 9.7 | 27.4 | 0.00 | 3.30 | 1.27 | 63 | 1010.1 |
| 20260505124004 | 21 | 175 | 11.3 | 19.3 | 0.00 | 3.33 | 1.27 | 66 | 1010.2 |
| 20260505123006 | 20 | 179 | 11.3 | 24.1 | 0.00 | 3.38 | 1.27 | 66 | 1010.2 |
| 20260505122004 | 20 | 185 | 8.0 | 22.5 | 0.00 | 3.43 | 1.27 | 71 | 1010.2 |
| 20260505121004 | 20 | 178 | 9.7 | 19.3 | 0.00 | 3.48 | 1.27 | 69 | 1010.4 |
| 20260505120005 | 20 | 150 | 8.0 | 19.3 | 0.00 | 3.56 | 1.27 | 70 | 1010.5 |
| 20260505115007 | 20 | 162 | 4.8 | 16.1 | 0.00 | 3.61 | 1.27 | 70 | 1010.5 |
| 20260505114004 | 20 | 121 | 6.4 | 12.9 | 0.00 | 3.63 | 1.27 | 70 | 1010.7 |
| 20260505113005 | 20 | 115 | 8.0 | 11.3 | 0.00 | 3.66 | 1.27 | 71 | 1010.8 |
| 20260505112004 | 19 | 135 | 3.2 | 14.5 | 0.00 | 3.71 | 1.27 | 74 | 1011.1 |
| 20260505111004 | 19 | 175 | 8.0 | 12.9 | 0.00 | 3.71 | 1.27 | 73 | 1011.2 |
| 20260505102004 | 20 | 284 | 1.6 | 9.7 | 0.00 | 3.86 | 1.27 | 71 | 1011.5 |
| 20260505101004 | 19 | 207 | 4.8 | 14.5 | 0.00 | 4.04 | 1.27 | 78 | 1011.5 |
| 20260505100006 | 18 | 176 | 4.8 | 14.5 | 0.00 | 4.17 | 1.27 | 77 | 1011.5 |
| 20260505094006 | 18 | 189 | 4.8 | 12.9 | 0.00 | 4.37 | 1.27 | 82 | 1011.5 |
| 20260505093006 | 18 | 192 | 4.8 | 12.9 | 0.00 | 4.42 | 1.27 | 83 | 1011.4 |
| 20260505092006 | 17 | 215 | 3.2 | 8.0 | 0.00 | 4.42 | 1.27 | 85 | 1011.2 |
| 20260505091006 | 17 | 201 | 3.2 | 11.3 | 0.00 | 4.47 | 1.27 | 88 | 1011.1 |
| 20260505090005 | 16 | 186 | 3.2 | 8.0 | 0.00 | 4.47 | 1.27 | 92 | 1011.2 |
| 20260505085006 | 16 | 255 | 1.6 | 8.0 | 0.00 | 4.50 | 1.27 | 95 | 1011.0 |
| 20260505084006 | 15 | 176 | 3.2 | 8.0 | 0.00 | 4.50 | 1.27 | 96 | 1011.0 |
| 20260505083006 | 15 | 195 | 3.2 | 8.0 | 0.00 | 4.52 | 1.27 | 97 | 1011.1 |
| 20260505082006 | 15 | 120 | 1.6 | 4.8 | 0.00 | 4.52 | 1.27 | 98 | 1011.2 |
| 20260505081006 | 14 | 150 | 1.6 | 9.7 | 0.00 | 4.57 | 1.27 | 98 | 1011.2 |
| 20260505080006 | 14 | 177 | 4.8 | 8.0 | 0.00 | 4.57 | 1.27 | 98 | 1011.3 |
| 20260505074007 | 14 | 275 | 0.0 | 3.2 | 0.00 | 4.70 | 1.27 | 97 | 1011.1 |
| 20260505073006 | 13 | 275 | 1.6 | 4.8 | 0.00 | 4.75 | 1.27 | 98 | 1011.0 |
| 20260505072006 | 13 | 346 | 1.6 | 8.0 | 0.00 | 4.95 | 1.27 | 98 | 1010.9 |
| 20260505071006 | 13 | 24 | 4.8 | 11.3 | 0.00 | 5.21 | 1.27 | 98 | 1010.7 |
| 20260505070006 | 13 | 327 | 3.2 | 9.7 | 0.08 | 5.31 | 1.27 | 98 | 1010.6 |
| 20260505065006 | 13 | 9 | 3.2 | 14.5 | 0.33 | 5.41 | 1.27 | 98 | 1010.4 |
| 20260505064004 | 13 | 31 | 8.0 | 14.5 | 0.38 | 5.51 | 1.27 | 98 | 1010.0 |
| 20260505062004 | 13 | 326 | 3.2 | 8.0 | 0.38 | 5.56 | 1.27 | 97 | 1009.9 |
| 20260505061006 | 13 | 4 | 3.2 | 9.7 | 0.38 | 5.59 | 1.27 | 97 | 1009.9 |
| 20260505060006 | 13 | 339 | 6.4 | 16.1 | 0.30 | 5.54 | 1.17 | 97 | 1009.7 |
| 20260505055006 | 13 | 325 | 8.0 | 12.9 | 0.13 | 5.51 | 0.91 | 97 | 1009.8 |
| 20260505054005 | 13 | 12 | 4.8 | 11.3 | 0.08 | 5.71 | 0.89 | 97 | 1009.6 |
| 20260505052006 | 13 | 25 | 0.0 | 0.0 | 0.08 | 5.84 | 0.89 | 97 | 1009.6 |
| 20260505041006 | 13 | 44 | 3.2 | 8.0 | 0.00 | 5.97 | 0.79 | 97 | 1009.6 |
| 20260505040006 | 13 | 32 | 1.6 | 4.8 | 0.00 | 5.97 | 0.79 | 97 | 1009.6 |
| 20260505035006 | 13 | 0 | 1.6 | 4.8 | 0.03 | 5.97 | 0.79 | 97 | 1009.8 |
| 20260505034006 | 13 | 0 | 1.6 | 4.8 | 0.03 | 5.97 | 0.79 | 97 | 1009.8 |
| 20260505033006 | 13 | 0 | 1.6 | 4.8 | 0.03 | 5.97 | 0.79 | 97 | 1009.9 |
| 20260505031006 | 13 | 32 | 1.6 | 4.8 | 0.05 | 5.97 | 0.79 | 97 | 1010.1 |
| 20260505030006 | 13 | 45 | 3.2 | 4.8 | 0.05 | 5.97 | 0.79 | 97 | 1010.1 |
| 20260505025007 | 13 | 98 | 0.0 | 1.6 | 0.05 | 5.97 | 0.79 | 97 | 1010.2 |
| 20260505024006 | 13 | 98 | 0.0 | 3.2 | 0.05 | 5.97 | 0.79 | 97 | 1010.3 |
| 20260505023006 | 13 | 20 | 1.6 | 4.8 | 0.05 | 5.97 | 0.79 | 97 | 1010.3 |
| 20260505022006 | 13 | 20 | 0.0 | 1.6 | 0.03 | 5.94 | 0.76 | 97 | 1010.4 |
| 20260505021007 | 13 | 20 | 0.0 | 1.6 | 0.00 | 5.92 | 0.74 | 97 | 1010.4 |
| 20260505020006 | 13 | 20 | 0.0 | 4.8 | 0.03 | 5.92 | 0.74 | 97 | 1010.4 |
| 20260505015006 | 13 | 20 | 1.6 | 4.8 | 0.03 | 5.92 | 0.74 | 97 | 1010.4 |
| 20260505014006 | 13 | 312 | 0.0 | 3.2 | 0.03 | 5.92 | 0.74 | 97 | 1010.5 |
| 20260505012006 | 13 | 29 | 0.0 | 4.8 | 0.05 | 5.92 | 0.74 | 97 | 1010.7 |
| 20260505011006 | 13 | 66 | 0.0 | 8.0 | 0.15 | 5.92 | 0.74 | 97 | 1010.7 |
| 20260505010005 | 13 | 29 | 3.2 | 8.0 | 0.18 | 5.89 | 0.71 | 97 | 1010.7 |
| 20260505005005 | 13 | 355 | 1.6 | 3.2 | 0.23 | 5.89 | 0.71 | 97 | 1010.7 |
| 20260505004006 | 12 | 355 | 1.6 | 3.2 | 0.30 | 5.89 | 0.71 | 97 | 1010.9 |
| 20260505002006 | 12 | 212 | 1.6 | 3.2 | 0.30 | 5.87 | 0.69 | 97 | 1011.2 |
| 20260505001005 | 12 | 155 | 0.0 | 0.0 | 0.23 | 5.79 | 0.61 | 96 | 1011.2 |
| 20260505000006 | 12 | 155 | 0.0 | 3.2 | 0.18 | 5.71 | 0.53 | 96 | 1011.2 |
| 20260504235006 | 12 | 155 | 1.6 | 1.6 | 0.15 | 5.69 | 0.51 | 96 | 1011.3 |
| 20260504234006 | 12 | 155 | 0.0 | 1.6 | 0.18 | 5.59 | 0.43 | 96 | 1011.5 |
| 20260504233006 | 12 | 155 | 0.0 | 3.2 | 0.20 | 5.59 | 0.43 | 96 | 1011.5 |
| 20260504231005 | 12 | 91 | 4.8 | 14.5 | 0.33 | 5.56 | 0.38 | 96 | 1011.5 |
| 20260504225005 | 12 | 270 | 0.0 | 0.0 | 0.43 | 5.51 | 0.33 | 96 | 1011.7 |
| 20260504224004 | 12 | 8 | 0.0 | 4.8 | 0.41 | 5.41 | 0.23 | 96 | 1011.6 |
| 20260504222006 | 12 | 103 | 1.6 | 9.7 | 0.33 | 5.31 | 0.13 | 96 | 1011.7 |
| 20260504221005 | 12 | 48 | 4.8 | 14.5 | 0.28 | 5.23 | 0.05 | 96 | 1011.8 |
| 20260504220007 | 12 | 55 | 1.6 | 11.3 | 0.33 | 5.18 | 0.00 | 96 | 1011.9 |
| 20260504215006 | 12 | 61 | 1.6 | 4.8 | 0.33 | 5.08 | 5.08 | 96 | 1011.9 |
| 20260504213006 | 12 | 135 | 1.6 | 14.5 | 0.61 | 4.98 | 4.98 | 96 | 1012.1 |
| 20260504210006 | 12 | 127 | 9.7 | 24.1 | 0.74 | 4.85 | 4.85 | 96 | 1012.5 |
| 20260504205006 | 12 | 105 | 6.4 | 19.3 | 0.79 | 4.75 | 4.75 | 96 | 1012.6 |
| 20260504204005 | 13 | 117 | 8.0 | 16.1 | 0.84 | 4.62 | 4.62 | 96 | 1012.9 |
| 20260504203006 | 13 | 129 | 3.2 | 12.9 | 0.79 | 4.37 | 4.37 | 96 | 1012.9 |
| 20260504201006 | 12 | 93 | 4.8 | 11.3 | 0.76 | 4.19 | 4.19 | 96 | 1012.8 |
| 20260504200005 | 13 | 82 | 4.8 | 12.9 | 0.74 | 4.11 | 4.11 | 96 | 1012.8 |
| 20260504194006 | 13 | 66 | 3.2 | 9.7 | 0.43 | 3.78 | 3.78 | 96 | 1012.8 |